User: anonymous   Login
Location: Pine Mountain Observatory
(43.7910°N, 120.9377°W)
Time: 05:04:10
(UTC-08:00)
Language:

APEX - Orbit

View from above orbital plane
View from above orbital plane
View from above satellite
View from above satellite

Ground track
Ground track

The orbit data is extracted from the following two-line orbital elements,

1 23191U 94046A   16041.11066971  .00014655  00000-0  51006-3 0  9998
2 23191  69.9262 274.2066 0647388 207.3917 149.1660 14.27784330 45885
Epoch (UTC): 10 February 2016 02:39:21
Eccentricity: 0.0647388
inclination: 69.9262°
perigee height: 334 km
apogee height: 1264 km
right ascension of ascending node: 274.2066°
argument of perigee: 207.3917°
revolutions per day: 14.27784330
mean anomaly at epoch: 149.1660°
orbit number at epoch: 4588

The dashed part of the orbit path shows where the satellite is in the earth's shadow,  

DLR